Location: Czu?�w
(50.1404°N, 18.9919°E)
Time: 03:07:22
(UTC+00:00)

YAOGAN 1 - Pass Details

Date: 27 October 2020
Orbit: 618 x 620 km, 97.9° (Epoch: 27 November)

Event Time Altitude Azimuth Distance (km) Brightness Sun altitude
Rises 16:40:51 0° 146° (SSE) 2,888 5.7 -12.1°
Reaches altitude 10° 16:43:05 10° 140° (SE) 1,987 4.8 -12.4°
Maximum altitude 16:47:11 44° 69° (ENE) 869 2.9 -13.1°
Drops below altitude 10° 16:51:19 10° 358° (N) 2,001 5.2 -13.8°
Sets 16:53:35 0° 352° (N) 2,911 6.1 -14.1°
